Fort Worth NAS, TX

4:37 AM CDT on October 18, 2017 (GMT -0500)
Fort Worth Naval Air Station Jrb

Weather History for KNFW - October, 2013

Change the Weather History Date:

Friday, October 11, 2013

  Actual Average Record
Temperature  
Mean Temperature 80 °F -  
Max Temperature 88 °F 76 °F 96 °F (2015)
Min Temperature 73 °F 57 °F 52 °F (2017)
Cooling Degree Days 16    
Growing Degree Days 30 (Base 50)    
Moisture  
Dew Point 65 °F    
Average Humidity 61    
Maximum Humidity 73    
Minimum Humidity 48    
Precipitation  
Precipitation 0.00 in - - ()
Sea Level Pressure  
Sea Level Pressure 29.88 in    
Wind  
Wind Speed 13 mph (SSE)    
Max Wind Speed 21 mph    
Max Gust Speed 26 mph    
Visibility 10 miles    
Events      
Averages and records for this station are not official NWS values.
T = Trace of Precipitation, MM = Missing Value Source: NWS Daily Summary

Daily Weather History Graph

Daily Weather History Graph

Search for Another Location

Airport or City:

Trip Planner

Search our weather history database for the weather conditions in past years. The results will help you decide how hot, cold, wet, or windy it might be!

Date:

Astronomy

Oct. 11, 2013 Rise Set
Actual Time 7:31 AM CDT 7:01 PM CDT
Civil Twilight 7:06 AM CDT 7:25 PM CDT
Nautical Twilight 6:37 AM CDT 7:54 PM CDT
Astronomical Twilight 6:09 AM CDT 8:23 PM CDT
Moon 2:04 PM CDT (10/11) No Moon Set
Length of Visible Light 12h 19m
Length of Day
11h 30m
Waxing Crescent, 47% of the Moon is Illuminated
Oct 11
Waxing Crescent
Oct 11
First Quarter
Oct 18
Full
Oct 26
Last Quarter
Nov 3
New

Hourly Weather History & Observations

Time (CDT) Temp. Heat Index Dew Point Humidity Pressure Visibility Wind Dir Wind Speed Gust Speed Precip Events Conditions
12:52 AM 73.9 °F - 57.9 °F 57% 29.86 in 10.0 mi SSE 12.7 mph - N/A   Clear
1:52 AM 73.9 °F - 60.1 °F 62% 29.86 in 10.0 mi SSE 13.8 mph 21.9 mph N/A   Clear
2:52 AM 73.0 °F - 61.0 °F 66% 29.86 in 10.0 mi South 15.0 mph - N/A   Clear
3:52 AM 73.0 °F - 62.1 °F 68% 29.86 in 10.0 mi SSE 13.8 mph - N/A   Clear
4:48 AM 73.4 °F - 62.6 °F 69% 29.90 in 10.0 mi SSE 11.5 mph - N/A   Mostly Cloudy
4:52 AM 73.0 °F - 63.0 °F 71% 29.85 in 10.0 mi SSE 13.8 mph - N/A   Mostly Cloudy
5:45 AM 73.4 °F - 62.6 °F 69% 29.90 in 10.0 mi SSE 11.5 mph - N/A   Scattered Clouds
5:52 AM 73.0 °F - 63.0 °F 71% 29.86 in 10.0 mi SSE 11.5 mph - N/A   Partly Cloudy
6:52 AM 73.0 °F - 64.0 °F 73% 29.90 in 10.0 mi South 4.6 mph - N/A   Scattered Clouds
7:30 AM 73.4 °F - 64.4 °F 73% 29.96 in 10.0 mi South 5.8 mph - N/A   Mostly Cloudy
7:52 AM 73.9 °F - 64.0 °F 71% 29.91 in 10.0 mi SSE 11.5 mph - N/A   Mostly Cloudy
8:52 AM 73.9 °F - 64.9 °F 73% 29.91 in 10.0 mi SSE 12.7 mph - N/A   Overcast
9:12 AM 75.2 °F - 64.4 °F 69% 29.96 in 10.0 mi SSE 15.0 mph - N/A   Scattered Clouds
9:52 AM 77.0 °F - 64.9 °F 66% 29.92 in 10.0 mi SSE 16.1 mph 20.7 mph N/A   Scattered Clouds
10:40 AM 78.8 °F - 64.4 °F 61% 29.96 in 10.0 mi South 13.8 mph - N/A   Overcast
10:52 AM 80.1 °F 82.1 °F 66.0 °F 62% 29.91 in 10.0 mi South 15.0 mph - N/A   Mostly Cloudy
11:30 AM 82.4 °F 84.6 °F 66.2 °F 58% 29.95 in 10.0 mi South 17.3 mph - N/A   Partly Cloudy
11:52 AM 82.9 °F 85.0 °F 66.0 °F 56% 29.90 in 10.0 mi South 20.7 mph 26.5 mph N/A   Partly Cloudy
12:39 PM 84.2 °F 86.6 °F 66.2 °F 55% 29.93 in 10.0 mi South 17.3 mph 23.0 mph N/A   Mostly Cloudy
12:52 PM 84.9 °F 87.1 °F 66.0 °F 53% 29.88 in 10.0 mi South 17.3 mph 23.0 mph N/A   Mostly Cloudy
1:52 PM 88.0 °F 90.3 °F 66.0 °F 48% 29.85 in 10.0 mi South 16.1 mph 21.9 mph N/A   Mostly Cloudy
2:52 PM 87.1 °F 89.2 °F 66.0 °F 49% 29.82 in 10.0 mi South 10.4 mph - N/A   Overcast
3:52 PM 87.1 °F 88.9 °F 64.9 °F 48% 29.82 in 10.0 mi South 12.7 mph - N/A   Overcast
4:52 PM 87.1 °F 88.9 °F 64.9 °F 48% 29.82 in 10.0 mi South 15.0 mph - N/A   Overcast
5:52 PM 86.0 °F 88.2 °F 66.0 °F 51% 29.81 in 10.0 mi South 13.8 mph - N/A   Overcast
6:52 PM 84.9 °F 87.1 °F 66.0 °F 53% 29.82 in 10.0 mi SSE 11.5 mph - N/A   Mostly Cloudy
7:52 PM 84.0 °F 86.3 °F 66.0 °F 55% 29.83 in 10.0 mi SSE 8.1 mph - N/A   Scattered Clouds
8:52 PM 82.9 °F 85.0 °F 66.0 °F 56% 29.84 in 10.0 mi SSE 6.9 mph - N/A   Partly Cloudy
9:52 PM 81.0 °F 83.3 °F 66.9 °F 62% 29.86 in 10.0 mi SSE 5.8 mph - N/A   Partly Cloudy
10:52 PM 81.0 °F 83.3 °F 66.9 °F 62% 29.87 in 10.0 mi SE 6.9 mph - N/A   Mostly Cloudy
11:52 PM 81.0 °F 83.3 °F 66.9 °F 62% 29.87 in 10.0 mi South 12.7 mph - N/A   Mostly Cloudy